Location: Roanoke
(37.2710°N, 79.9420°W)
Time: 06:33:44
(UTC-05:00)

Vanguard 2 - All Passes

Search period start: 14 November 2019 00:00
Search period end: 24 November 2019 00:00
Orbit: 554 x 2937 km, 32.9° (Epoch: 13 November)

Date Brightness Start Highest point End Pass type
(mag) Time Alt. Az. Time Alt. Az. Time Alt. Az.
14 Nov - 08:05:24 10° SSW 08:11:38 19° SSE 08:16:18 10° ESE daylight
14 Nov - 10:13:50 10° SW 10:20:33 38° SSE 10:25:04 10° E daylight
14 Nov - 12:23:43 10° WSW 12:28:43 49° S 12:32:37 10° ESE daylight
14 Nov - 14:33:01 10° WSW 14:36:26 26° SSW 14:39:53 10° SE daylight
15 Nov - 08:22:00 10° SSW 08:29:41 26° SSE 08:34:58 10° ESE daylight
15 Nov - 10:31:36 10° WSW 10:38:29 46° S 10:43:03 10° E daylight
15 Nov - 12:41:44 10° W 12:46:35 47° S 12:50:26 10° ESE daylight
15 Nov - 14:51:21 10° WSW 14:54:13 19° SSW 14:57:08 10° SSE daylight
16 Nov - 06:32:08 10° S 06:38:04 15° SSE 06:42:50 10° ESE visible
16 Nov - 08:39:09 10° SW 08:47:41 34° SSE 08:53:16 10° E daylight
16 Nov - 10:49:31 10° WSW 10:56:25 52° S 11:00:57 10° E daylight
16 Nov - 12:59:48 10° W 13:04:25 40° SSW 13:08:11 10° ESE daylight
16 Nov - 15:10:16 10° SW 15:11:58 12° SSW 15:13:42 10° S daylight
17 Nov - 06:47:44 10° SSW 06:56:09 21° SSE 07:02:17 10° ESE daylight
17 Nov - 08:56:38 10° SW 09:05:41 42° SSE 09:11:21 10° E daylight
17 Nov - 11:07:33 10° WSW 11:14:20 56° S 11:18:49 10° ESE daylight
17 Nov - 13:17:55 10° W 13:22:13 32° SSW 13:25:47 10° SE daylight
18 Nov - 05:01:57 10° SSE 05:03:54 10° SSE 05:05:45 10° SE visible
18 Nov - 07:04:13 10° SSW 07:14:13 29° SSE 07:20:59 10° ESE daylight
18 Nov - 09:14:23 10° WSW 09:23:39 50° S 09:29:20 10° E daylight
18 Nov - 11:25:37 10° W 11:32:14 55° S 11:36:39 10° ESE daylight
18 Nov - 13:36:10 10° WSW 13:39:57 24° SSW 13:43:12 10° SSE daylight
19 Nov - 05:14:21 10° S 05:22:00 16° SSE 05:28:12 10° ESE visible
19 Nov - 07:21:14 10° SW 07:32:15 36° SSE 07:39:20 10° E daylight
19 Nov - 09:32:19 10° WSW 09:41:38 56° S 09:47:15 10° E daylight
19 Nov - 11:43:44 10° W 11:50:06 50° SSW 11:54:26 10° ESE daylight
19 Nov - 13:54:43 10° WSW 13:57:36 17° SSW 14:00:13 10° SSE daylight
20 Nov - 05:29:45 10° SSW 05:40:04 23° SSE 05:47:46 10° ESE visible
20 Nov - 07:38:38 10° SW 07:50:16 44° SSE 07:57:27 10° E daylight
20 Nov - 09:50:22 10° WSW 09:59:35 61° S 10:05:08 10° E daylight
20 Nov - 12:01:53 10° W 12:07:54 42° SSW 12:12:07 10° SE daylight
20 Nov - 14:14:26 10° SW 14:15:13 10° SW 14:15:58 10° SSW daylight
21 Nov - 03:45:20 10° SSE 03:47:22 10° SE 03:49:19 10° SE visible
21 Nov - 05:46:04 10° SSW 05:58:07 30° SSE 06:06:35 10° E visible
21 Nov - 07:56:19 10° WSW 08:08:17 52° SSE 08:15:29 10° E daylight
21 Nov - 10:08:30 10° W 10:17:31 62° S 10:22:59 10° ESE daylight
21 Nov - 12:20:06 10° W 12:25:39 33° SSW 12:29:39 10° SE daylight
22 Nov - 03:56:52 10° S 04:05:24 16° SE 04:12:39 10° ESE visible
22 Nov - 06:02:55 10° SW 06:16:08 38° SSE 06:25:00 10° E visible
22 Nov - 08:14:13 10° WSW 08:26:17 59° S 08:33:25 10° E daylight
22 Nov - 10:26:39 10° W 10:35:26 60° S 10:40:47 10° ESE daylight
22 Nov - 12:38:27 10° W 12:43:17 25° SSW 12:46:58 10° SSE daylight
23 Nov - 04:11:55 10° S 04:23:24 23° SSE 04:32:32 10° ESE visible
23 Nov - 06:20:11 10° SW 06:34:11 46° SSE 06:43:12 10° E visible
23 Nov - 08:32:16 10° WSW 08:44:17 65° S 08:51:19 10° E daylight
23 Nov - 10:44:51 10° W 10:53:18 54° SSW 10:58:32 10° ESE daylight
23 Nov - 12:57:07 10° WSW 13:00:50 17° SW 13:03:52 10° S daylight
